When you browse on this site, cookies collect data to enhance your experience and personalize the content and advertising you see.
Visit our Privacy Policy to learn more. By continuing to use the site, you agree to this use of cookies and data.
  • In Hungary
  • List of Countries
  • For 7 days
  • Water Temperature
  • Weather Map
  • News
  • Weather Widgets
  • user-avatar
    Login

    Hourly Weather Brezdelevo

    Today, 24 October, Thursday

    Time Temperature Precipitation Wind Pressure Humidity
    00:00 +8°C° 0 mm 2 mps 749 mmHg 87%
    01:00 +8°C° 0 mm 2 mps 750 mmHg 86%
    02:00 +8°C° 0 mm 2 mps 750 mmHg 86%
    03:00 +8°C° 0 mm 2 mps 750 mmHg 88%
    04:00 +7°C° 0 mm 2 mps 750 mmHg 90%
    05:00 +6°C° 0 mm 2 mps 749 mmHg 92%
    06:00 +6°C° 0 mm 2 mps 750 mmHg 92%
    07:00 +6°C° 0 mm 2 mps 750 mmHg 92%
    08:00 +6°C° 0 mm 2 mps 750 mmHg 92%
    09:00 +7°C° 0 mm 2 mps 750 mmHg 87%
    10:00 +8°C° 0 mm 2 mps 750 mmHg 81%
    11:00 +9°C° 0 mm 2 mps 751 mmHg 76%
    12:00 +9°C° 0 mm 2 mps 750 mmHg 75%
    13:00 +10°C° 0 mm 2 mps 750 mmHg 73%
    14:00 +10°C° 0 mm 2 mps 750 mmHg 71%
    15:00 +9°C° 0 mm 2 mps 750 mmHg 77%
    16:00 +8°C° 0 mm 2 mps 750 mmHg 83%
    17:00 +8°C° 0 mm 1 mps 750 mmHg 88%
    18:00 +6°C° 0 mm 2 mps 750 mmHg 90%
    19:00 +6°C° 0 mm 2 mps 750 mmHg 93%
    20:00 +6°C° 0 mm 2 mps 750 mmHg 95%
    21:00 +6°C° 0 mm 2 mps 750 mmHg 95%
    22:00 +6°C° 0 mm 2 mps 750 mmHg 95%
    23:00 +5°C° 0 mm 2 mps 750 mmHg 95%

    Tomorrow, 25 October, Friday

    Time Temperature Precipitation Wind Pressure Humidity
    00:00 +6°C° 0 mm 2 mps 749 mmHg 95%
    01:00 +6°C° 0 mm 2 mps 749 mmHg 95%
    02:00 +6°C° 0 mm 2 mps 749 mmHg 95%
    03:00 +5°C° 0 mm 3 mps 749 mmHg 94%
    04:00 +5°C° 0 mm 3 mps 748 mmHg 94%
    05:00 +5°C° 0 mm 3 mps 748 mmHg 93%
    06:00 +5°C° 0 mm 3 mps 747 mmHg 92%
    07:00 +6°C° 0 mm 4 mps 747 mmHg 90%
    08:00 +6°C° 0 mm 4 mps 746 mmHg 89%
    09:00 +7°C° 0 mm 4 mps 746 mmHg 86%
    10:00 +9°C° 0 mm 5 mps 745 mmHg 83%
    11:00 +10°C° 0 mm 5 mps 745 mmHg 80%
    12:00 +12°C° 0 mm 5 mps 744 mmHg 79%
    13:00 +13°C° 0 mm 5 mps 744 mmHg 78%
    14:00 +14°C° 0 mm 6 mps 743 mmHg 76%
    15:00 +13°C° 0 mm 5 mps 743 mmHg 80%
    16:00 +13°C° 0 mm 5 mps 743 mmHg 83%
    17:00 +12°C° 0 mm 5 mps 743 mmHg 87%
    18:00 +12°C° 0 mm 5 mps 743 mmHg 85%
    19:00 +13°C° 0 mm 5 mps 744 mmHg 83%
    20:00 +13°C° 0 mm 5 mps 744 mmHg 81%
    21:00 +12°C° 0 mm 5 mps 744 mmHg 82%
    22:00 +10°C° 0 mm 5 mps 745 mmHg 83%
    23:00 +10°C° 0 mm 4 mps 745 mmHg 84%

    Day after tomorrow, 26 October, Saturday

    Time Temperature Precipitation Wind Pressure Humidity
    00:00 +8°C° 0 mm 4 mps 745 mmHg 84%
    01:00 +8°C° 0 mm 4 mps 745 mmHg 84%
    02:00 +8°C° 0 mm 4 mps 746 mmHg 85%
    03:00 +8°C° 0 mm 4 mps 746 mmHg 84%
    04:00 +8°C° 0 mm 4 mps 746 mmHg 84%
    05:00 +7°C° 0 mm 4 mps 746 mmHg 84%
    06:00 +8°C° 0 mm 5 mps 745 mmHg 82%
    07:00 +8°C° 0 mm 5 mps 745 mmHg 80%
    08:00 +8°C° 0 mm 6 mps 745 mmHg 79%
    09:00 +9°C° 0 mm 6 mps 744 mmHg 76%
    10:00 +9°C° 0 mm 6 mps 744 mmHg 74%
    11:00 +10°C° 0 mm 6 mps 743 mmHg 71%
    12:00 +10°C° 0.1 mm 6 mps 742 mmHg 71%
    13:00 +10°C° 0.1 mm 7 mps 742 mmHg 71%
    14:00 +10°C° 0.1 mm 7 mps 741 mmHg 71%
    15:00 +10°C° 0.4 mm 7 mps 740 mmHg 75%
    16:00 +10°C° 0.4 mm 7 mps 740 mmHg 79%
    17:00 +11°C° 0.4 mm 7 mps 739 mmHg 82%
    18:00 +10°C° 0.5 mm 7 mps 740 mmHg 84%
    19:00 +10°C° 0.5 mm 6 mps 740 mmHg 87%
    20:00 +10°C° 0.5 mm 5 mps 740 mmHg 89%
    21:00 +11°C° 0.5 mm 4 mps 740 mmHg 90%
    22:00 +11°C° 0.5 mm 4 mps 740 mmHg 91%
    23:00 +11°C° 0.5 mm 3 mps 740 mmHg 92%

    , 27 October, Sunday

    Time Temperature Precipitation Wind Pressure Humidity
    00:00 +11°C° 0.7 mm 3 mps 740 mmHg 93%
    01:00 +11°C° 0.7 mm 3 mps 740 mmHg 94%
    02:00 +12°C° 0.7 mm 2 mps 740 mmHg 94%
    03:00 +11°C° 0.7 mm 3 mps 740 mmHg 93%
    04:00 +11°C° 0.7 mm 4 mps 739 mmHg 91%
    05:00 +11°C° 0.7 mm 4 mps 739 mmHg 89%
    06:00 +11°C° 0.4 mm 4 mps 739 mmHg 89%
    07:00 +10°C° 0.4 mm 5 mps 739 mmHg 89%
    08:00 +10°C° 0.4 mm 5 mps 739 mmHg 90%
    09:00 +10°C° 0.1 mm 5 mps 738 mmHg 88%
    10:00 +12°C° 0.1 mm 5 mps 738 mmHg 87%
    11:00 +11°C° 0.1 mm 6 mps 738 mmHg 86%
    12:00 +11°C° 0.2 mm 6 mps 737 mmHg 86%
    13:00 +11°C° 0.2 mm 6 mps 737 mmHg 86%
    14:00 +11°C° 0.2 mm 6 mps 736 mmHg 85%
    15:00 +11°C° 0 mm 6 mps 736 mmHg 86%
    16:00 +11°C° 0 mm 6 mps 736 mmHg 86%
    17:00 +13°C° 0 mm 6 mps 735 mmHg 86%
    18:00 +11°C° 0.1 mm 6 mps 735 mmHg 82%
    19:00 +11°C° 0.1 mm 7 mps 735 mmHg 79%
    20:00 +10°C° 0.1 mm 7 mps 735 mmHg 76%
    21:00 +10°C° 0 mm 7 mps 735 mmHg 75%
    22:00 +9°C° 0 mm 6 mps 735 mmHg 74%
    23:00 +8°C° 0 mm 6 mps 735 mmHg 73%

    27 October, Sunday

    Time Temperature Precipitation Wind Pressure Humidity
    00:00 +11°C° 0.7 mm 3 mps 740 mmHg 93%
    01:00 +11°C° 0.7 mm 3 mps 740 mmHg 94%
    02:00 +12°C° 0.7 mm 2 mps 740 mmHg 94%
    03:00 +11°C° 0.7 mm 3 mps 740 mmHg 93%
    04:00 +11°C° 0.7 mm 4 mps 739 mmHg 91%
    05:00 +11°C° 0.7 mm 4 mps 739 mmHg 89%
    06:00 +11°C° 0.4 mm 4 mps 739 mmHg 89%
    07:00 +10°C° 0.4 mm 5 mps 739 mmHg 89%
    08:00 +10°C° 0.4 mm 5 mps 739 mmHg 90%
    09:00 +10°C° 0.1 mm 5 mps 738 mmHg 88%
    10:00 +12°C° 0.1 mm 5 mps 738 mmHg 87%
    11:00 +11°C° 0.1 mm 6 mps 738 mmHg 86%
    12:00 +11°C° 0.2 mm 6 mps 737 mmHg 86%
    13:00 +11°C° 0.2 mm 6 mps 737 mmHg 86%
    14:00 +11°C° 0.2 mm 6 mps 736 mmHg 85%
    15:00 +11°C° 0 mm 6 mps 736 mmHg 86%
    16:00 +11°C° 0 mm 6 mps 736 mmHg 86%
    17:00 +13°C° 0 mm 6 mps 735 mmHg 86%
    18:00 +11°C° 0.1 mm 6 mps 735 mmHg 82%
    19:00 +11°C° 0.1 mm 7 mps 735 mmHg 79%
    20:00 +10°C° 0.1 mm 7 mps 735 mmHg 76%
    21:00 +10°C° 0 mm 7 mps 735 mmHg 75%
    22:00 +9°C° 0 mm 6 mps 735 mmHg 74%
    23:00 +8°C° 0 mm 6 mps 735 mmHg 73%

    28 October, Monday

    Time Temperature Precipitation Wind Pressure Humidity
    00:00 +7°C° 0 mm 6 mps 735 mmHg 72%
    01:00 +7°C° 0 mm 6 mps 735 mmHg 72%
    02:00 +7°C° 0 mm 6 mps 735 mmHg 71%
    03:00 +5°C° 0 mm 6 mps 735 mmHg 72%
    04:00 +5°C° 0 mm 6 mps 735 mmHg 74%
    05:00 +5°C° 0 mm 6 mps 735 mmHg 75%
    06:00 +5°C° 0.2 mm 6 mps 736 mmHg 75%
    07:00 +4°C° 0.2 mm 6 mps 736 mmHg 76%
    08:00 +4°C° 0.2 mm 7 mps 736 mmHg 76%
    09:00 +4°C° 0.1 mm 6 mps 737 mmHg 75%
    10:00 +5°C° 0.1 mm 5 mps 738 mmHg 75%
    11:00 +5°C° 0.1 mm 5 mps 739 mmHg 74%
    12:00 +5°C° 0.1 mm 5 mps 740 mmHg 74%
    13:00 +5°C° 0.1 mm 4 mps 740 mmHg 74%
    14:00 +4°C° 0.1 mm 4 mps 741 mmHg 74%
    15:00 +4°C° 0 mm 4 mps 742 mmHg 75%
    16:00 +3°C° 0 mm 3 mps 743 mmHg 77%
    17:00 +2°C° 0 mm 3 mps 743 mmHg 78%
    18:00 +2°C° 0 mm 3 mps 744 mmHg 80%
    19:00 +3°C° 0 mm 2 mps 745 mmHg 82%
    20:00 +2°C° 0 mm 2 mps 745 mmHg 83%
    21:00 +2°C° 0 mm 2 mps 746 mmHg 83%
    22:00 +2°C° 0 mm 2 mps 746 mmHg 84%
    23:00 +3°C° 0 mm 1 mps 747 mmHg 84%

    29 October, Tuesday

    Time Temperature Precipitation Wind Pressure Humidity
    00:00 +2°C° 0 mm 1 mps 747 mmHg 86%
    01:00 +2°C° 0 mm 1 mps 747 mmHg 87%
    02:00 +2°C° 0 mm 1 mps 748 mmHg 89%
    03:00 +2°C° 0 mm 1 mps 748 mmHg 89%
    04:00 +1°C° 0 mm 1 mps 748 mmHg 90%
    05:00 +1°C° 0 mm 1 mps 748 mmHg 91%
    06:00 +1°C° 0 mm 1 mps 748 mmHg 91%
    07:00 +1°C° 0 mm 1 mps 749 mmHg 91%
    08:00 +1°C° 0 mm 1 mps 749 mmHg 91%
    09:00 +1°C° 0 mm 2 mps 749 mmHg 87%
    10:00 +1°C° 0 mm 2 mps 750 mmHg 83%
    11:00 +2°C° 0 mm 2 mps 750 mmHg 79%
    12:00 +1°C° 0 mm 3 mps 750 mmHg 79%
    13:00 +1°C° 0 mm 3 mps 750 mmHg 78%
    14:00 +1°C° 0 mm 3 mps 750 mmHg 77%
    15:00 +1°C° 0 mm 3 mps 750 mmHg 78%
    16:00 0°C° 0 mm 3 mps 750 mmHg 80%
    17:00 0°C° 0 mm 3 mps 750 mmHg 81%
    18:00 -1°C° 0.1 mm 3 mps 750 mmHg 82%
    19:00 -2°C° 0.1 mm 4 mps 750 mmHg 83%
    20:00 -2°C° 0.1 mm 4 mps 751 mmHg 83%
    21:00 -3°C° 0.2 mm 4 mps 751 mmHg 83%
    22:00 -3°C° 0.2 mm 4 mps 751 mmHg 83%
    23:00 -3°C° 0.2 mm 4 mps 751 mmHg 83%
    Show more